CW1309 Weather Reports


Display with metric or nautical units.
time (UTC)temp
F
wind
direction
speed
MPH
gust
MPH
rain 1hr
in
rain 24hr
in
rain mn
in
humidity
%
barometer
mb
20260510230027 90 139 2.0 8.0 0.00 0.00 0.00 70 1011.5
20260510224526 91 124 3.0 11.0 0.00 0.00 0.00 70 1011.8
20260510223024 91 133 3.0 9.0 0.00 0.00 0.00 70 1011.7
20260510221528 91 112 3.0 7.0 0.00 0.00 0.00 72 1011.8
20260510220023 91 114 3.0 12.0 0.00 0.00 0.00 72 1011.9
20260510213020 90 145 3.0 12.0 0.00 0.00 0.00 74 1012.3
20260510211519 90 115 6.0 11.0 0.00 0.00 0.00 74 1012.6
20260510210020 90 101 2.0 10.0 0.00 0.00 0.00 74 1012.6
20260510204513 90 119 3.0 7.0 0.00 0.00 0.00 74 1012.9
20260510203012 89 154 3.0 11.0 0.00 0.00 0.00 75 1013.0
20260510201510 88 98 6.0 9.0 0.00 0.00 0.00 75 1013.0
20260510200010 88 117 5.0 11.0 0.00 0.00 0.00 77 1013.0
20260510194510 88 103 6.0 11.0 0.00 0.00 0.00 76 1013.3
20260510193008 88 152 3.0 9.0 0.00 0.00 0.00 76 1013.5
20260510191505 87 196 4.0 8.0 0.00 0.00 0.00 76 1013.6
20260510190002 87 171 2.0 7.0 0.00 0.00 0.00 78 1013.7
20260510184557 86 119 3.0 11.0 0.00 0.00 0.00 79 1014.0
20260510183057 85 98 3.0 10.0 0.00 0.00 0.00 81 1014.2
20260510181606 85 152 3.0 8.0 0.00 0.00 0.00 82 1014.5
20260510180056 84 153 4.0 10.0 0.00 0.00 0.00 82 1014.8
20260510174550 83 97 3.0 8.0 0.00 0.00 0.00 84 1014.9
20260510173048 83 145 2.0 15.0 0.00 0.00 0.00 84 1014.9
20260510171551 82 90 4.0 9.0 0.00 0.00 0.00 85 1015.1
20260510170109 81 99 4.0 11.0 0.00 0.00 0.00 86 1015.3
20260510164558 81 134 3.0 11.0 0.00 0.00 0.00 85 1015.3
20260510163040 80 105 4.0 13.0 0.00 0.00 0.00 87 1015.5
20260510161536 78 109 3.0 11.0 0.00 0.00 0.00 89 1015.5
20260510160034 78 113 7.0 13.0 0.00 0.00 0.00 89 1015.4
20260510154532 78 77 4.0 13.0 0.00 0.00 0.00 90 1015.4
20260510151533 77 105 4.0 9.0 0.00 0.00 0.00 94 1015.3
20260510150023 76 90 6.0 9.0 0.00 0.00 0.00 97 1015.1
20260510144520 74 101 3.0 9.0 0.00 0.00 0.00 100 1014.7
20260510143021 73 168 1.0 5.0 0.00 0.00 0.00 100 1014.6
20260510141516 73 126 0.0 4.0 0.00 0.00 0.00 100 1014.4
20260510140016 72 159 2.0 6.0 0.00 0.00 0.00 100 1014.2
20260510134513 72 171 1.0 4.0 0.00 0.00 0.00 100 1014.1
20260510133012 72 132 0.0 1.0 0.00 0.00 0.00 100 1013.9
20260510131511 71 132 1.0 3.0 0.00 0.00 0.00 100 1013.7
20260510130023 71 190 0.0 1.0 0.00 0.00 0.00 100 1013.3
20260510124506 71 190 0.0 1.0 0.00 0.02 0.00 100 1013.1
20260510123005 70 190 0.0 3.0 0.00 0.02 0.00 100 1013.1
20260510121502 70 193 1.0 6.0 0.00 0.02 0.00 100 1012.4
20260510120008 70 180 1.0 4.0 0.00 0.02 0.00 100 1012.1
20260510114503 69 173 2.0 7.0 0.00 0.02 0.00 100 1011.9
20260510113001 69 177 1.0 4.0 0.00 0.02 0.00 99 1012.1
20260510111603 69 182 1.0 3.0 0.00 0.02 0.00 99 1012.0
20260510110058 69 206 1.0 5.0 0.00 0.02 0.00 98 1012.0
20260510104559 69 190 0.0 3.0 0.00 0.02 0.00 98 1011.9
20260510103056 69 191 0.0 2.0 0.00 0.02 0.00 98 1012.0
20260510101554 69 206 4.0 6.0 0.00 0.02 0.00 98 1012.0
20260510100100 70 194 2.0 5.0 0.00 0.02 0.00 97 1012.1
20260510094553 70 173 2.0 4.0 0.00 0.02 0.00 96 1012.1
20260510093054 70 165 0.0 2.0 0.00 0.02 0.00 96 1012.2
20260510091549 70 163 0.0 5.0 0.00 0.02 0.00 96 1012.1
20260510090049 71 142 0.0 3.0 0.00 0.02 0.00 95 1012.2
20260510084547 71 119 0.0 2.0 0.00 0.02 0.00 95 1012.1
20260510083058 71 117 0.0 3.0 0.00 0.02 0.00 94 1012.1
20260510081645 71 161 0.0 2.0 0.00 0.02 0.00 94 1012.0
20260510080044 72 167 1.0 3.0 0.00 0.02 0.00 94 1011.9
20260510074543 72 143 0.0 3.0 0.00 0.02 0.00 94 1012.0
20260510073041 72 134 1.0 3.0 0.00 0.02 0.00 94 1011.9
20260510071541 72 130 1.0 6.0 0.00 0.02 0.00 94 1011.9
20260510070039 73 139 1.0 4.0 0.00 0.02 0.00 94 1012.0
20260510064540 73 121 0.0 2.0 0.00 0.02 0.00 94 1011.9
20260510063037 73 119 0.0 0.0 0.00 0.02 0.00 93 1011.9
20260510061536 74 119 0.0 0.0 0.00 0.02 0.00 92 1012.0
20260510060036 74 119 0.0 0.0 0.00 0.02 0.00 92 1011.8
20260510054532 74 114 0.0 2.0 0.00 0.02 0.00 92 1011.8
20260510053030 74 114 0.0 3.0 0.00 0.02 0.00 91 1011.8
20260510051529 74 113 1.0 3.0 0.00 0.02 0.00 91 1011.8
20260510050025 75 113 0.0 2.0 0.00 0.02 0.00 90 1011.5
20260510044525 75 113 0.0 3.0 0.00 0.02 0.02 89 1011.5
20260510043025 76 113 0.0 2.0 0.00 0.02 0.02 88 1011.4
20260510041523 76 112 1.0 3.0 0.00 0.02 0.02 86 1011.3
20260510040023 77 112 1.0 4.0 0.00 0.02 0.02 85 1011.3
20260510034527 77 111 1.0 4.0 0.00 0.02 0.02 85 1011.1
20260510033025 77 111 1.0 3.0 0.00 0.02 0.02 84 1010.9
20260510031523 78 111 1.0 3.0 0.00 0.02 0.02 84 1010.8
20260510030025 78 111 1.0 3.0 0.00 0.02 0.02 84 1010.5
20260510024521 78 111 0.0 2.0 0.00 0.02 0.02 83 1010.2
20260510023019 79 111 0.0 2.0 0.00 0.02 0.02 82 1010.2
20260510021525 80 111 0.0 3.0 0.00 0.02 0.02 82 1010.0
20260510020019 80 111 1.0 3.0 0.00 0.02 0.02 81 1010.0
20260510014519 81 111 1.0 3.0 0.00 0.02 0.02 81 1009.7
20260510013017 81 111 2.0 4.0 0.00 0.02 0.02 80 1009.5
20260510011517 83 105 4.0 13.0 0.00 0.02 0.02 80 1009.4
20260510010116 84 78 9.0 15.0 0.00 0.02 0.02 82 1009.2
20260510004516 84 76 3.0 7.0 0.00 0.02 0.02 81 1009.2
20260510003016 85 73 4.0 8.0 0.00 0.02 0.02 79 1009.1
20260510001515 85 94 4.0 8.0 0.00 0.02 0.02 77 1009.0
20260510000114 85 84 4.0 8.0 0.00 0.02 0.02 77 1008.9
20260509234528 85 63 4.0 6.0 0.00 0.02 0.02 76 1008.6
20260509233013 85 26 2.0 5.0 0.00 0.02 0.02 76 1008.6
20260509231516 85 63 2.0 9.0 0.00 0.02 0.02 76 1008.6